Flag for U.S.A. Weather past 2 weeks in Manassas, Virginia, U.S.A.

Now
75 °F

Overcast.


Feels Like: 74 °F
Forecast: 69 / 79 °F
Wind: 5 mph from Southeast

Location: Manassas Municipal

Current Time: Aug 22, 2014 at 10:04:14 PM

Latest Report: Aug 22, 2014 at 9:35 PM


Visibility: 9 mi

Pressure: 29.99 "Hg

Humidity: 94%

Dew point: 73 °F

Location of ManassasLocation

Historic Weather in Manassas — Graph

°F

Manassas temperature yesterday

Maximum temperature yesterday: 86 °F (at 2:45 PM)
Minimum temperature yesterday: 64 °F (at 3:55 AM)
Average temperature yesterday: 72 °F

Past Weeks' High & Low Weather Summary

 TemperatureHumidityPressure
High86 °F (Aug 21, 2:45 PM)100% (Aug 7, 10:15 PM)30.15 "Hg (Aug 7, 10:15 PM)
Low54 °F (Aug 15, 6:15 AM)32% (Aug 14, 5:55 PM)28.77 "Hg (Aug 12, 8:55 PM)
Average70 °F86%29.97 "Hg
* Reported Aug 7 8:50 PM — Aug 22 8:55 PM, Manassas, Weather by CustomWeather, © 2014

Note: Actual official high and low records may vary slightly from our data, if they occured in-between our weather recording intervals... More about our weather records

Advertising

Manassas weather history for previous 24 hours

 ConditionsComfort  
Time TempWeatherWind HumidityBarometerVisibility
8:55 PM
Aug 22
75 °FPassing clouds.5 mph94%29.98 "Hg10 mi
8:35 PM73 °FScattered clouds.3 mph100%29.97 "Hg10 mi
8:15 PM75 °FScattered clouds.No wind94%29.96 "Hg10 mi
7:55 PM75 °FScattered clouds.5 mph94%29.95 "Hg10 mi
7:35 PM79 °FScattered clouds.5 mph79%29.95 "Hg10 mi
7:15 PM79 °FPartly sunny.3 mph79%29.95 "Hg10 mi
6:55 PM79 °FBroken clouds.3 mph79%29.95 "Hg10 mi
6:35 PM81 °FOvercast.3 mph74%29.95 "Hg10 mi
6:15 PM81 °FBroken clouds.5 mph74%29.95 "Hg10 mi
3:45 PM81 °FPassing clouds.3 mph79%29.97 "Hg10 mi
2:55 PM79 °FMore clouds than sun.5 mph84%29.99 "Hg10 mi
1:45 PM79 °FMore clouds than sun.5 mph79%30.01 "Hg10 mi
12:50 PM79 °FPartly sunny.6 mph74%30.00 "Hg10 mi
11:55 AM79 °FSunny.5 mph74%30.01 "Hg10 mi
10:45 AM77 °FSunny.3 mph83%30.01 "Hg10 mi
9:55 AM75 °FSunny.6 mph83%30.01 "Hg10 mi
8:55 AM75 °FSunny.No wind89%30.00 "Hg10 mi
7:55 AM72 °FScattered clouds.No wind100%30.01 "Hg10 mi
6:15 AM70 °FClear.No wind100%29.97 "Hg10 mi
5:55 AM70 °FClear.No wind94%29.97 "Hg10 mi
5:35 AM70 °FClear.3 mph94%29.97 "Hg10 mi
5:15 AM70 °FClear.No wind100%29.96 "Hg10 mi
4:55 AM70 °FClear.No wind100%29.96 "Hg10 mi
4:35 AM70 °FClear.No wind100%29.96 "Hg5 mi
4:15 AM72 °FClear.No wind100%29.96 "Hg10 mi
3:55 AM70 °FClear.No wind100%29.97 "Hg9 mi
3:35 AM72 °FClear.No wind94%29.97 "Hg8 mi
3:15 AM72 °FClear.No wind100%29.98 "Hg2 mi
2:55 AM72 °FClear.3 mph94%29.98 "Hg3 mi
2:35 AM72 °FPassing clouds.No wind100%29.99 "Hg4 mi
1:55 AM72 °FClear.No wind100%29.99 "Hg4 mi
1:35 AM72 °FClear.No wind100%29.99 "Hg5 mi
1:15 AM72 °FClear.No wind100%29.99 "Hg7 mi
12:55 AM72 °FClear.3 mph100%29.99 "Hg3 mi
12:35 AM72 °FClear.No wind100%30.00 "Hg4 mi
12:15 AM73 °FClear.No wind100%30.00 "Hg5 mi
11:55 PM
Aug 21
73 °FClear.No wind94%30.00 "Hg7 mi
11:35 PM73 °FPassing clouds.No wind100%30.00 "Hg5 mi
11:15 PM73 °FPassing clouds.No wind100%30.00 "Hg8 mi
10:55 PM75 °FClear.No wind100%30.00 "Hg5 mi
10:35 PM73 °FPassing clouds.No wind100%30.01 "Hg5 mi
10:15 PM73 °FOvercast.No wind100%30.00 "Hg5 mi
Weather by CustomWeather, © 2014

See weather overviewHow to use our weather pages